Orbital Elements at Epoch 2459000.5 (2020-May-31.0) TDB
Reference: JPL 16 (heliocentric ecliptic J2000)
Element | Value | Uncertainty (1-sigma) | Units |
e | .1331622070015276 | 4.3315e-08 | |
a | 2.785418948020803 | 2.3007e-08 | au |
q | 2.414506413478479 | 1.2195e-07 | au |
i | 8.38830058900645 | 6.6097e-06 | deg |
node | 171.3451397114538 | 3.1506e-05 | deg |
peri | 291.9480300452809 | 4.0657e-05 | deg |
M | 79.58249332660802 | 2.5049e-05 | deg |
tp | 2458625.138906178242 (2019-May-21.63890618) | 0.00011737 | TDB |
period | 1697.98643052382 4.65 | 2.1038e-05 5.76e-08 | d yr |
n | .2120158285887726 | 2.6268e-09 | deg/d |
Q | 3.156331482563126 | 2.6071e-08 | au |
|
| | Orbit Determination Parameters
Additional Information
|